Elko, NV

2:42 AM PDT on July 22, 2017 (GMT -0700)
Elko Regional

Weather History for KEKO - December, 2013

Change the Weather History Date:

Monday, December 23, 2013

  Actual Average Record
Temperature  
Mean Temperature 35 °F 25 °F  
Max Temperature 45 °F 36 °F 56 °F (1964)
Min Temperature 24 °F 14 °F -30 °F (1990)
Degree Days  
Heating Degree Days 30 40  
Month to date heating degree days 1075 889  
Since 1 July heating degree days 2635 2627  
Cooling Degree Days 0 0  
Month to date cooling degree days 0 0  
Year to date cooling degree days 776 383  
Moisture  
Dew Point 28 °F    
Average Humidity 75    
Maximum Humidity 92    
Minimum Humidity 58    
Precipitation  
Precipitation T in 0.04 in 1.08 in (1892)
Month to date precipitation 0.64 0.87  
Year to date precipitation 6.45 9.58  
Snow  
Snow 0.00 in 0.40 in 6.20 in (1968)
Month to date snowfall 4.5 7.0  
Since 1 July snowfall 10.2 12.7  
Snow Depth 0.00 in    
Sea Level Pressure  
Sea Level Pressure 30.45 in    
Wind  
Wind Speed 3 mph (WSW)    
Max Wind Speed 9 mph    
Max Gust Speed 10 mph    
Visibility 10 miles    
Events      
T = Trace of Precipitation, MM = Missing Value Source: NWS Daily Summary

Daily Weather History Graph

Daily Weather History Graph

Search for Another Location

Airport or City:

Trip Planner

Search our weather history database for the weather conditions in past years. The results will help you decide how hot, cold, wet, or windy it might be!

Date:

Astronomy

Dec. 23, 2013 Rise Set
Actual Time 7:05 AM PST 4:19 PM PST
Civil Twilight 6:34 AM PST 4:50 PM PST
Nautical Twilight 5:59 AM PST 5:25 PM PST
Astronomical Twilight 5:26 AM PST 5:58 PM PST
Moon 10:36 PM PST (12/23) 10:30 AM PST (12/23)
Length of Visible Light 10h 16m
Length of Day
9h 14m
Waning Gibbous, 67% of the Moon is Illuminated
Dec 23
Waning Gibbous
Dec 25
Last Quarter
Jan 1
New
Jan 7
First Quarter
Jan 15
Full

Hourly Weather History & Observations

Time (PST) Temp. Windchill Dew Point Humidity Pressure Visibility Wind Dir Wind Speed Gust Speed Precip Events Conditions
12:11 AM 32.0 °F 26.4 °F 28.9 °F 88% 30.39 in 10.0 mi WSW 5.8 mph - N/A   Overcast
12:56 AM 33.1 °F - 28.9 °F 85% 30.43 in 10.0 mi Calm Calm - N/A   Overcast
1:19 AM 33.1 °F 30.0 °F 28.9 °F 85% 30.40 in 10.0 mi SSW 3.5 mph - N/A   Overcast
1:56 AM 32.0 °F 28.7 °F 28.0 °F 85% 30.45 in 10.0 mi West 3.5 mph - N/A   Overcast
2:03 AM 32.0 °F 27.5 °F 28.9 °F 88% 30.40 in 10.0 mi WSW 4.6 mph - N/A   Overcast
2:56 AM 32.0 °F - 28.0 °F 85% 30.45 in 10.0 mi Calm Calm - N/A   Overcast
3:22 AM 30.9 °F 27.5 °F 28.0 °F 89% 30.41 in 10.0 mi WSW 3.5 mph - N/A   Scattered Clouds
3:56 AM 30.0 °F 26.5 °F 27.0 °F 88% 30.46 in 10.0 mi East 3.5 mph - N/A   Clear
4:56 AM 28.0 °F 24.2 °F 26.1 °F 92% 30.48 in 10.0 mi WNW 3.5 mph - N/A   Partly Cloudy
5:56 AM 27.0 °F - 25.0 °F 92% 30.48 in 10.0 mi Calm Calm - N/A   Clear
6:56 AM 25.0 °F - 21.9 °F 88% 30.51 in 10.0 mi Calm Calm - N/A   Clear
7:56 AM 28.0 °F - 26.1 °F 92% 30.50 in 10.0 mi Calm Calm - N/A   Clear
8:56 AM 32.0 °F - 28.0 °F 85% 30.49 in 10.0 mi Calm Calm - N/A   Clear
9:56 AM 37.0 °F 32.4 °F 28.9 °F 73% 30.50 in 10.0 mi SSW 5.8 mph - N/A   Clear
10:56 AM 39.9 °F 34.5 °F 30.0 °F 68% 30.48 in 10.0 mi West 8.1 mph - N/A   Clear
11:56 AM 42.1 °F 40.2 °F 30.0 °F 62% 30.46 in 10.0 mi SW 3.5 mph - N/A   Partly Cloudy
12:56 PM 44.1 °F 39.5 °F 30.9 °F 60% 30.43 in 10.0 mi SW 8.1 mph - N/A   Partly Cloudy
1:56 PM 44.1 °F 40.1 °F 30.9 °F 60% 30.43 in 10.0 mi SW 6.9 mph - N/A   Clear
2:56 PM 43.0 °F 40.3 °F 30.9 °F 62% 30.42 in 10.0 mi SSW 4.6 mph - N/A   Partly Cloudy
3:56 PM 39.9 °F 37.8 °F 32.0 °F 73% 30.45 in 10.0 mi WSW 3.5 mph - N/A   Overcast
4:56 PM 37.0 °F 33.3 °F 30.9 °F 79% 30.47 in 10.0 mi WNW 4.6 mph - N/A   Overcast
5:56 PM 35.1 °F 32.2 °F 30.0 °F 82% 30.46 in 10.0 mi Variable 3.5 mph - N/A   Mostly Cloudy
6:56 PM 36.0 °F - 30.0 °F 79% 30.45 in 10.0 mi Calm Calm - N/A   Mostly Cloudy
7:56 PM 33.1 °F - 28.9 °F 85% 30.45 in 10.0 mi Calm Calm - N/A   Mostly Cloudy
8:56 PM 33.1 °F 28.7 °F 28.9 °F 85% 30.43 in 10.0 mi WSW 4.6 mph - N/A   Clear
9:56 PM 32.0 °F 28.7 °F 28.0 °F 85% 30.41 in 10.0 mi West 3.5 mph - N/A   Clear
10:56 PM 28.9 °F - 27.0 °F 92% 30.41 in 10.0 mi Calm Calm - N/A   Clear
11:56 PM 30.0 °F - 27.0 °F 88% 30.41 in 10.0 mi North - - N/A   Clear